Weather in Velikie Borki

Ukraine / Ternopil District     49°31′14″N   25°45′15″E
temp.,
°C
wind,
m/s
gust,
m/s
humid.,
%
clouds,
%
prec.,
mm/h
press.,
hPa
HPBL,
m
7 august, sun
sun700:00+22nne356269 0.0 1016107
03:00+19nnw6109384 0.1 1017345
06:00+16n61096100 0.4 1019441
09:00+15n6894100 0.4 1020454
12:00+17n5785100 0.0 1021610
15:00+16n5783100 0.1 1021611
18:00+18nne467179 0.0 1021602
21:00+17ne237238 0.0 1021105
8 august, mon
mon800:00+14nne22885 0.0 102226
03:00+14ne22945 0.0 102220
06:00+13ne23965 0.0 102255
09:00+19ene456647 0.0 1022612
12:00+24ene4446100 0.0 10211313
15:00+26ne434161 0.0 10201837
18:00+24nne674899 0.0 1020778
21:00+19nne6116047 0.0 1021319
9 august, tue
tue900:00+19ne41058100 0.0 1021329
03:00+17nne3766100 0.3 1022210
06:00+16nne3771100 0.2 1022240
09:00+16nne5974100 0.4 1023372
12:00+16ne5974100 0.4 1023513
15:00+15nne5785100 0.9 1024474
18:00+15nne4791100 0.4 1024447
21:00+14nne2593100 0.4 1024220
10 august, wed
wed1000:00+14n229185 0.0 102439
03:00+13n359120 0.0 1023103
06:00+12n249480 0.0 102371
09:00+17nne367212 0.0 1023351
12:00+23ne6639100 0.1 10222420
15:00+21ne5647100 0.1 10221336
18:00+21ne3645100 0.0 10221369
21:00+18nne3854100 0.0 1022264
11 august, thu
thu1100:00+18nne51155100 0.0 1022403
03:00+17ne41058100 0.0 1022333
06:00+16ne4967100 0.0 1022279
09:00+16ne486694 0.0 1023305
12:00+19ne4752100 0.0 1023618
15:00+20nne564449 0.0 1023819
18:00+23ne454192 0.0 10221512
21:00+20nne5105130 0.0 1021340